Weather History for Milledgeville, GA

Change the Weather History Date:

Thursday, October 17, 2013

  Actual Average (KOKZ) Record (KOKZ)
Temperature  
Mean Temperature 72 °F -  
Max Temperature 82 °F 75 °F 78 °F (2014)
Min Temperature 62 °F 53 °F 45 °F (2014)
Cooling Degree Days 7    
Growing Degree Days 22 (Base 50)    
Moisture  
Dew Point 61 °F    
Average Humidity 76    
Maximum Humidity 94    
Minimum Humidity 35    
Precipitation  
Precipitation 0.00 in - - ()
Sea Level Pressure  
Sea Level Pressure 29.94 in    
Wind  
Wind Speed 0 mph (West)    
Max Wind Speed 6 mph    
Max Gust Speed -    
Visibility 8 miles    
Events Rain    
Averages and records for this station are not official NWS values.
T = Trace of Precipitation, MM = Missing Value Source: NWS Daily Summary

Daily Weather History Graph

Daily Weather History Graph

Search for Another Location

Airport:

Trip Planner

Search our weather history database for the weather conditions in past years. The results will help you decide how hot, cold, wet, or windy it might be!

Date:

Astronomy

Oct. 17, 2013 Rise Set
Actual Time 7:39 AM EDT 6:56 PM EDT
Civil Twilight 7:14 AM EDT 7:21 PM EDT
Nautical Twilight 6:45 AM EDT 7:50 PM EDT
Astronomical Twilight 6:16 AM EDT 8:19 PM EDT
Moon 6:08 PM EDT (10/17) 6:13 AM EDT (10/17)
Length of Visible Light 12h 07m
Length of Day
11h 17m
Waxing Gibbous, 98% of the Moon is Illuminated
Oct 17
Waxing Gibbous
Oct 18
Full
Oct 26
Last Quarter
Nov 3
New
Nov 10
First Quarter

Hourly Weather History & Observations

Time (EDT) Temp. Heat Index Dew Point Humidity Pressure Visibility Wind Dir Wind Speed Gust Speed Precip Events Conditions
12:15 AM 62.6 °F - 60.8 °F 94% 29.99 in 4.0 mi Calm Calm - N/A   Clear
12:35 AM 62.6 °F - 60.8 °F 94% 29.98 in 4.0 mi Calm Calm - N/A   Clear
12:55 AM 62.6 °F - 60.8 °F 94% 29.97 in 5.0 mi Calm Calm - N/A   Clear
1:15 AM 62.6 °F - 60.8 °F 94% 29.97 in 4.0 mi Calm Calm - N/A   Clear
1:35 AM 62.6 °F - 60.8 °F 94% 29.97 in 5.0 mi Calm Calm - N/A   Clear
1:55 AM 62.6 °F - 60.8 °F 94% 29.97 in 3.0 mi Calm Calm - N/A   Clear
2:15 AM 62.6 °F - 60.8 °F 94% 29.97 in 1.5 mi Calm Calm - N/A   Mist
2:35 AM 62.6 °F - 60.8 °F 94% 29.96 in 7.0 mi Calm Calm - N/A   Clear
2:55 AM 62.6 °F - 60.8 °F 94% 29.97 in 10.0 mi Calm Calm - N/A   Clear
3:15 AM 62.6 °F - 60.8 °F 94% 29.96 in 7.0 mi Calm Calm - N/A   Clear
3:35 AM 62.6 °F - 60.8 °F 94% 29.95 in 7.0 mi Calm Calm - N/A   Clear
3:55 AM 64.4 °F - 60.8 °F 88% 29.95 in 7.0 mi Calm Calm - N/A   Clear
4:15 AM 64.4 °F - 60.8 °F 88% 29.95 in 7.0 mi Calm Calm - N/A   Clear
4:35 AM 62.6 °F - 60.8 °F 94% 29.94 in 5.0 mi Calm Calm - N/A   Clear
4:55 AM 62.6 °F - 60.8 °F 94% 29.95 in 5.0 mi Calm Calm - N/A   Clear
5:15 AM 62.6 °F - 60.8 °F 94% 29.95 in 7.0 mi Calm Calm - N/A   Clear
5:35 AM 62.6 °F - 60.8 °F 94% 29.96 in 7.0 mi Calm Calm - N/A   Clear
5:55 AM 62.6 °F - 60.8 °F 94% 29.96 in 10.0 mi Calm Calm - N/A   Clear
6:15 AM 62.6 °F - 60.8 °F 94% 29.96 in 10.0 mi Calm Calm - N/A   Clear
6:35 AM 64.4 °F - 60.8 °F 88% 29.96 in 10.0 mi Calm Calm - N/A   Clear
6:55 AM 64.4 °F - 60.8 °F 88% 29.96 in 10.0 mi Calm Calm - N/A   Clear
7:15 AM 62.6 °F - 60.8 °F 94% 29.97 in 10.0 mi Calm Calm - N/A   Clear
7:35 AM 62.6 °F - 60.8 °F 94% 29.96 in 10.0 mi Calm Calm - N/A   Clear
7:55 AM 62.6 °F - 60.8 °F 94% 29.97 in 7.0 mi Calm Calm - N/A   Clear
8:15 AM 62.6 °F - 60.8 °F 94% 29.97 in 7.0 mi Calm Calm - N/A   Clear
8:35 AM 62.6 °F - 60.8 °F 94% 29.97 in 10.0 mi Calm Calm - N/A   Clear
8:55 AM 64.4 °F - 60.8 °F 88% 29.98 in 10.0 mi Calm Calm - N/A   Clear
9:15 AM 66.2 °F - 60.8 °F 83% 29.99 in 10.0 mi Calm Calm - N/A   Clear
9:35 AM 68.0 °F - 62.6 °F 83% 29.99 in 10.0 mi Calm Calm - N/A   Clear
9:55 AM 71.6 °F - 62.6 °F 73% 29.99 in 10.0 mi Calm Calm - N/A   Scattered Clouds
10:15 AM 73.4 °F - 55.4 °F 53% 29.99 in 10.0 mi Calm Calm - N/A   Mostly Cloudy
10:35 AM 73.4 °F - 55.4 °F 53% 29.99 in 10.0 mi Calm Calm - N/A   Scattered Clouds
10:55 AM 77.0 °F - 55.4 °F 47% 29.99 in 10.0 mi SSW 3.5 mph - N/A   Mostly Cloudy
11:15 AM 78.8 °F - 53.6 °F 42% 29.98 in 10.0 mi Calm Calm - N/A   Scattered Clouds
11:35 AM 80.6 °F 80.3 °F 53.6 °F 39% 29.98 in 10.0 mi West 3.5 mph - N/A   Scattered Clouds
11:55 AM 80.6 °F - 51.8 °F 37% 29.97 in 10.0 mi Calm Calm - N/A   Mostly Cloudy
12:15 PM 80.6 °F 80.3 °F 53.6 °F 39% 29.97 in 10.0 mi Calm Calm - N/A   Mostly Cloudy
12:35 PM 80.6 °F 80.3 °F 53.6 °F 39% 29.96 in 10.0 mi Calm Calm - N/A   Scattered Clouds
12:55 PM 82.4 °F - 51.8 °F 35% 29.95 in 10.0 mi West 5.8 mph - N/A   Mostly Cloudy
1:15 PM 82.4 °F - 51.8 °F 35% 29.94 in 10.0 mi West 4.6 mph - N/A   Mostly Cloudy
1:35 PM 82.4 °F - 51.8 °F 35% 29.93 in 10.0 mi Calm Calm - N/A   Mostly Cloudy
1:55 PM 82.4 °F 81.4 °F 53.6 °F 37% 29.92 in 10.0 mi Calm Calm - N/A   Overcast
2:15 PM 82.4 °F - 51.8 °F 35% 29.92 in 10.0 mi Calm Calm - N/A   Overcast
2:35 PM 82.4 °F 81.4 °F 53.6 °F 37% 29.90 in 10.0 mi Calm Calm - N/A   Overcast
2:55 PM 82.4 °F 81.4 °F 53.6 °F 37% 29.90 in 10.0 mi Calm Calm - N/A   Overcast
3:15 PM 80.6 °F 80.3 °F 53.6 °F 39% 29.89 in 10.0 mi Calm Calm - N/A   Overcast
3:35 PM 80.6 °F 80.5 °F 55.4 °F 42% 29.89 in 10.0 mi Calm Calm - N/A   Overcast
3:55 PM 78.8 °F - 55.4 °F 44% 29.90 in 10.0 mi Calm Calm - N/A   Overcast
4:15 PM 78.8 °F - 59.0 °F 51% 29.89 in 10.0 mi Calm Calm - N/A   Overcast
4:35 PM 78.8 °F - 59.0 °F 51% 29.90 in 10.0 mi Calm Calm - N/A   Overcast
4:55 PM 78.8 °F - 59.0 °F 51% 29.91 in 10.0 mi West 5.8 mph - N/A Rain Light Rain
5:15 PM 73.4 °F - 68.0 °F 83% 29.91 in 5.0 mi Calm Calm - N/A Rain Light Rain
5:35 PM 71.6 °F - 69.8 °F 94% 29.90 in 7.0 mi Calm Calm - N/A   Overcast
5:55 PM 73.4 °F - 69.8 °F 88% 29.90 in 10.0 mi Calm Calm - N/A   Overcast
6:15 PM 73.4 °F - 69.8 °F 88% 29.91 in 5.0 mi Calm Calm - N/A   Overcast
6:35 PM 71.6 °F - 69.8 °F 94% 29.91 in 5.0 mi Calm Calm - N/A Rain Light Rain
6:55 PM 71.6 °F - 69.8 °F 94% 29.91 in 7.0 mi Calm Calm - N/A   Light Drizzle
7:15 PM 71.6 °F - 68.0 °F 88% 29.91 in 7.0 mi Calm Calm - N/A   Overcast
7:35 PM 71.6 °F - 68.0 °F 88% 29.91 in 5.0 mi Calm Calm - N/A   Overcast
7:55 PM 71.6 °F - 68.0 °F 88% 29.91 in 5.0 mi Calm Calm - N/A   Overcast
8:15 PM 71.6 °F - 68.0 °F 88% 29.92 in 5.0 mi Calm Calm - N/A   Overcast
8:35 PM 71.6 °F - 68.0 °F 88% 29.92 in 7.0 mi Calm Calm - N/A Rain Rain
8:55 PM 71.6 °F - 68.0 °F 88% 29.93 in 7.0 mi Calm Calm - N/A Rain Light Rain
9:15 PM 71.6 °F - 68.0 °F 88% 29.93 in 7.0 mi WNW 3.5 mph - N/A Rain Light Rain
9:35 PM 71.6 °F - 68.0 °F 88% 29.93 in 7.0 mi Calm Calm - N/A   Overcast
9:55 PM 71.6 °F - 68.0 °F 88% 29.93 in 3.0 mi Calm Calm - N/A   Overcast
10:15 PM 71.6 °F - 68.0 °F 88% 29.93 in 2.5 mi Calm Calm - N/A Rain Rain
10:35 PM 71.6 °F - 68.0 °F 88% 29.93 in 4.0 mi Calm Calm - N/A Rain Light Rain
10:55 PM 71.6 °F - 68.0 °F 88% 29.93 in 1.8 mi Calm Calm - N/A   Overcast
11:15 PM 71.6 °F - 68.0 °F 88% 29.93 in 2.0 mi Calm Calm - N/A   Overcast
11:35 PM 71.6 °F - 68.0 °F 88% 29.93 in 2.0 mi Calm Calm - N/A   Overcast
11:55 PM 71.6 °F - 68.0 °F 88% 29.93 in 4.0 mi Calm Calm - N/A Rain Light Rain